EW3937 Weather Reports


Display with metric or nautical units.
time (UTC)temp
F
wind
direction
speed
MPH
gust
MPH
rain 1hr
in
rain 24hr
in
rain mn
in
humidity
%
barometer
mb
20260902080503 56 0 0.0 1.0 0.00 0.00 0.00 67 1008.1
20260902080003 56 0 0.0 2.0 0.00 0.00 0.00 67 1008.0
20260902075718 57 0 0.0 2.0 0.00 0.00 0.00 67 1008.1
20260902075003 57 0 0.0 2.0 0.00 0.00 0.00 68 1008.0
20260902074503 57 0 0.0 0.0 0.00 0.00 0.00 67 1008.1
20260902074003 58 241 1.0 2.0 0.00 0.00 0.00 67 1008.1
20260902073503 58 236 1.0 3.0 0.00 0.00 0.00 67 1008.1
20260902073217 58 236 0.0 3.0 0.00 0.00 0.00 68 1008.0
20260902072503 58 236 0.0 3.0 0.00 0.00 0.00 69 1008.0
20260902072003 57 228 1.0 3.0 0.00 0.00 0.00 70 1008.0
20260902071503 57 224 1.0 6.0 0.00 0.00 0.00 71 1008.0
20260902071003 56 218 1.0 6.0 0.00 0.00 0.00 73 1008.1
20260902070503 54 193 0.0 6.0 0.00 0.00 0.00 78 1008.1
20260902070006 54 151 0.0 4.0 0.00 0.00 0.00 76 1008.0
20260902065718 54 151 1.0 4.0 0.00 0.00 0.00 75 1008.0
20260902065003 55 156 2.0 4.0 0.00 0.00 0.00 73 1008.1
20260902064503 56 155 1.0 4.0 0.00 0.00 0.00 74 1008.0
20260902064003 56 155 0.0 3.0 0.00 0.00 0.00 73 1008.0
20260902063503 56 0 1.0 1.0 0.00 0.00 0.00 73 1007.9
20260902063003 57 0 1.0 1.0 0.00 0.00 0.00 72 1007.8
20260902062503 57 0 1.0 1.0 0.00 0.00 0.00 72 1007.8
20260902062003 57 0 1.0 1.0 0.00 0.00 0.00 72 1007.8
20260902061718 57 0 1.0 1.0 0.00 0.00 0.00 71 1007.8
20260902061003 58 0 1.0 1.0 0.00 0.00 0.00 70 1007.9
20260902060503 58 0 0.0 0.0 0.00 0.00 0.00 71 1007.9
20260902060003 58 0 0.0 0.0 0.00 0.00 0.00 73 1007.9
20260902055503 58 156 1.0 1.0 0.00 0.00 0.00 72 1007.9
20260902055003 58 157 2.0 2.0 0.00 0.00 0.00 71 1008.0
20260902054503 58 177 2.0 3.0 0.00 0.00 0.00 70 1008.0
20260902054003 58 179 2.0 3.0 0.00 0.00 0.00 71 1008.0
20260902053717 58 180 2.0 3.0 0.00 0.00 0.00 71 1008.0
20260902053003 58 204 1.0 4.0 0.00 0.00 0.00 69 1007.9
20260902052503 58 207 0.0 3.0 0.00 0.00 0.00 70 1007.8
20260902052003 59 0 0.0 1.0 0.00 0.00 0.00 67 1007.7
20260902051503 59 0 0.0 1.0 0.00 0.00 0.00 68 1007.7
20260902051003 59 0 0.0 2.0 0.00 0.00 0.00 69 1007.7
20260902050503 59 0 0.0 2.0 0.00 0.00 0.00 66 1007.7
20260902050005 61 0 0.0 1.0 0.00 0.00 0.00 63 1007.7
20260902045503 62 94 0.0 3.0 0.00 0.00 0.00 63 1007.7
20260902045003 62 97 1.0 3.0 0.00 0.00 0.00 62 1007.6
20260902044503 62 99 0.0 3.0 0.00 0.00 0.00 63 1007.6
20260902044003 62 105 0.0 3.0 0.00 0.00 0.00 63 1007.6
20260902043503 62 0 0.0 3.0 0.00 0.00 0.00 63 1007.6
20260902043218 62 0 0.0 3.0 0.00 0.00 0.00 63 1007.6
20260902042503 62 0 0.0 3.0 0.00 0.00 0.00 63 1007.5
20260902042003 62 0 0.0 1.0 0.00 0.00 0.00 62 1007.5
20260902041503 63 107 0.0 1.0 0.00 0.00 0.00 61 1007.5
20260902041003 64 103 1.0 2.0 0.00 0.00 0.00 61 1007.6
20260902040503 64 103 0.0 2.0 0.00 0.00 0.00 61 1007.7
20260902040003 64 0 0.0 2.0 0.00 0.00 0.00 61 1007.6
20260902035503 63 0 0.0 2.0 0.00 0.00 0.00 62 1007.6
20260902035003 64 0 0.0 1.0 0.00 0.00 0.00 60 1007.7
20260902034503 64 0 0.0 1.0 0.00 0.00 0.00 58 1007.7
20260902034003 65 0 0.0 3.0 0.00 0.00 0.00 58 1007.6
20260902033503 65 0 0.0 3.0 0.00 0.00 0.00 58 1007.5
20260902033003 65 100 0.0 3.0 0.00 0.00 0.00 58 1007.7
20260902032503 65 107 1.0 3.0 0.00 0.00 0.00 58 1007.5
20260902032003 65 100 1.0 4.0 0.00 0.00 0.00 57 1007.5
20260902031503 65 98 0.0 4.0 0.00 0.00 0.00 57 1007.4
20260902031217 65 0 0.0 3.0 0.00 0.00 0.00 58 1007.4
20260902030503 65 0 0.0 2.0 0.00 0.00 0.00 57 1007.3
20260902030003 65 0 0.0 4.0 0.00 0.00 0.00 57 1007.3
20260902025503 66 0 0.0 4.0 0.00 0.00 0.00 56 1007.3
20260902025003 66 0 0.0 1.0 0.00 0.00 0.00 56 1007.2
20260902024503 66 0 0.0 1.0 0.00 0.00 0.00 55 1007.1
20260902024217 66 0 0.0 2.0 0.00 0.00 0.00 55 1007.2
20260902023503 67 0 0.0 2.0 0.00 0.00 0.00 54 1007.0
20260902023003 67 0 0.0 2.0 0.00 0.00 0.00 54 1007.0
20260902022503 68 0 0.0 2.0 0.00 0.00 0.00 53 1007.0
20260902022003 68 0 0.0 3.0 0.00 0.00 0.00 52 1007.1
20260902021503 69 0 0.0 3.0 0.00 0.00 0.00 51 1007.1
20260902021003 69 0 0.0 2.0 0.00 0.00 0.00 50 1007.2
20260902020503 70 0 0.0 2.0 0.00 0.00 0.00 49 1007.2
20260902020003 71 0 0.0 2.0 0.00 0.00 0.00 48 1007.2
20260902015503 72 225 0.0 2.0 0.00 0.00 0.00 46 1007.3
20260902015003 72 234 1.0 3.0 0.00 0.00 0.00 45 1007.3
20260902014503 73 229 1.0 4.0 0.00 0.00 0.00 44 1007.2
20260902014003 74 227 1.0 4.0 0.00 0.00 0.00 44 1007.1
20260902013718 74 242 1.0 4.0 0.00 0.00 0.00 44 1007.1
20260902013217 74 240 1.0 4.0 0.00 0.00 0.00 44 1007.1
20260902012718 74 181 1.0 5.0 0.00 0.00 0.00 44 1007.2
20260902012003 74 96 1.0 5.0 0.00 0.00 0.00 45 1007.3
20260902011503 74 319 1.0 4.0 0.00 0.00 0.00 46 1007.3
20260902011217 74 305 1.0 3.0 0.00 0.00 0.00 46 1007.3
20260902010503 72 59 1.0 5.0 0.00 0.00 0.00 48 1007.3
20260902010217 72 69 1.0 5.0 0.00 0.00 0.00 48 1007.4
20260902005503 72 69 2.0 5.0 0.00 0.00 0.00 48 1007.5
20260902005003 72 68 1.0 5.0 0.00 0.00 0.00 48 1007.5
20260902004503 72 68 1.0 3.0 0.00 0.00 0.00 47 1007.4
20260902004003 72 62 2.0 5.0 0.00 0.00 0.00 48 1007.4
20260902003503 72 49 2.0 6.0 0.00 0.00 0.00 48 1007.4
20260902003216 72 50 2.0 6.0 0.00 0.00 0.00 48 1007.4
20260902002503 72 57 2.0 6.0 0.00 0.00 0.00 48 1007.4
20260902002216 72 60 2.0 6.0 0.00 0.00 0.00 47 1007.4
20260902001503 72 68 1.0 5.0 0.00 0.00 0.00 47 1007.6
20260902001003 72 45 1.0 5.0 0.00 0.00 0.00 47 1007.7
20260902000503 72 49 2.0 4.0 0.00 0.00 0.00 47 1007.8
20260902000219 72 67 2.0 6.0 0.00 0.00 0.00 48 1007.8
20260901235503 72 58 1.0 6.0 0.00 0.00 0.00 47 1007.8
20260901235003 72 35 1.0 6.0 0.00 0.00 0.00 47 1007.6
20260901234503 72 351 1.0 5.0 0.00 0.00 0.00 47 1007.7
20260901234003 72 320 1.0 5.0 0.00 0.00 0.00 47 1007.8
20260901233503 72 296 1.0 3.0 0.00 0.00 0.00 49 1008.0
20260901233003 71 352 2.0 4.0 0.00 0.00 0.00 49 1007.8
20260901232503 71 49 2.0 4.0 0.00 0.00 0.00 47 1007.8
20260901232003 71 69 1.0 5.0 0.00 0.00 0.00 48 1007.6
20260901231503 71 77 1.0 5.0 0.00 0.00 0.00 47 1007.4
20260901231003 71 88 2.0 6.0 0.00 0.00 0.00 48 1007.2
20260901230503 71 72 2.0 7.0 0.00 0.00 0.00 46 1007.0
20260901230004 71 64 1.0 7.0 0.00 0.00 0.00 46 1007.2
20260901225503 71 56 1.0 6.0 0.00 0.00 0.00 46 1007.4
20260901225003 71 61 0.0 4.0 0.00 0.00 0.00 48 1007.6
20260901224503 70 0 0.0 3.0 0.00 0.00 0.00 51 1007.8
20260901224003 69 98 0.0 4.0 0.00 0.00 0.00 53 1007.8
20260901223717 69 97 1.0 4.0 0.00 0.00 0.00 53 1008.0
20260901223003 68 72 1.0 4.0 0.00 0.00 0.00 54 1008.2
20260901222503 68 59 1.0 4.0 0.00 0.00 0.00 52 1008.2
20260901222003 68 58 1.0 4.0 0.00 0.00 0.00 54 1008.2
20260901221717 67 58 1.0 4.0 0.00 0.00 0.00 55 1008.3
20260901221003 67 318 1.0 3.0 0.00 0.00 0.00 55 1008.3
20260901220503 67 94 1.0 5.0 0.00 0.00 0.00 57 1008.6
20260901220217 67 98 1.0 5.0 0.00 0.00 0.00 59 1008.6
20260901215503 66 106 0.0 3.0 0.00 0.00 0.00 60 1008.8
20260901215003 65 111 1.0 3.0 0.00 0.00 0.00 62 1008.9
20260901214503 65 74 1.0 3.0 0.00 0.00 0.00 63 1009.0
20260901214217 65 67 1.0 3.0 0.00 0.00 0.00 60 1009.0
20260901213503 65 68 1.0 3.0 0.00 0.00 0.00 57 1009.5
20260901213217 66 84 1.0 2.0 0.00 0.00 0.00 57 1009.6
20260901212503 66 93 1.0 3.0 0.00 0.00 0.00 51 1009.9
20260901212003 68 89 1.0 4.0 0.00 0.00 0.00 51 1010.0
20260901211503 70 91 0.0 4.0 0.00 0.00 0.00 43 1010.2
20260901211003 71 0 0.0 4.0 0.00 0.00 0.00 45 1010.3
20260901210503 71 0 0.0 1.0 0.00 0.00 0.00 43 1010.1
20260901210003 72 0 0.0 1.0 0.00 0.00 0.00 41 1010.0
20260901205718 72 0 0.0 0.0 0.00 0.00 0.00 40 1010.1
20260901205003 72 0 0.0 0.0 0.00 0.00 0.00 37 1010.1
20260901204503 72 0 0.0 0.0 0.00 0.00 0.00 39 1009.9
20260901204003 72 0 0.0 1.0 0.00 0.00 0.00 39 1009.9
20260901203503 72 259 0.0 3.0 0.00 0.00 0.00 38 1009.8
20260901203003 72 255 1.0 3.0 0.00 0.00 0.00 36 1009.5
20260901202503 72 250 1.0 3.0 0.00 0.00 0.00 36 1009.3
20260901202003 72 231 1.0 5.0 0.00 0.00 0.00 36 1009.2
20260901201503 72 226 0.0 5.0 0.00 0.00 0.00 36 1009.3
20260901201003 72 266 1.0 2.0 0.00 0.00 0.00 36 1009.0
20260901200503 72 252 1.0 3.0 0.00 0.00 0.00 35 1009.1
20260901200003 72 244 1.0 4.0 0.00 0.00 0.00 35 1009.3
20260901195503 73 272 1.0 5.0 0.00 0.00 0.00 35 1009.3
20260901195217 73 286 1.0 5.0 0.00 0.00 0.00 35 1009.2
20260901194503 73 272 1.0 4.0 0.00 0.00 0.00 34 1009.1
20260901194003 72 249 1.0 4.0 0.00 0.00 0.00 35 1009.2
20260901193503 72 220 1.0 5.0 0.00 0.00 0.00 35 1009.3
20260901193003 72 219 1.0 5.0 0.00 0.00 0.00 35 1009.4
20260901192503 72 244 3.0 5.0 0.00 0.00 0.00 36 1009.4
20260901192003 72 234 5.0 9.0 0.00 0.00 0.00 35 1009.3
20260901191503 72 223 6.0 9.0 0.00 0.00 0.00 35 1009.8
20260901191216 72 222 6.0 12.0 0.00 0.00 0.00 34 1009.7
20260901190503 74 218 2.0 13.0 0.00 0.00 0.00 32 1009.7
20260901190003 77 214 0.0 12.0 0.00 0.00 0.00 30 1009.5
20260901185503 77 0 0.0 2.0 0.00 0.00 0.00 29 1009.1
20260901185003 78 0 0.0 2.0 0.00 0.00 0.00 30 1009.0
20260901184503 78 0 0.0 2.0 0.00 0.00 0.00 29 1008.9
20260901184003 78 11 0.0 2.0 0.00 0.00 0.00 29 1008.8
20260901183503 79 96 0.0 4.0 0.00 0.00 0.00 29 1008.9
20260901183003 80 0 0.0 4.0 0.00 0.00 0.00 27 1008.9
20260901182503 80 0 0.0 1.0 0.00 0.00 0.00 28 1008.7
20260901182003 79 245 0.0 2.0 0.00 0.00 0.00 30 1008.9
20260901181503 78 292 1.0 4.0 0.00 0.00 0.00 29 1008.8
20260901181003 77 304 2.0 5.0 0.00 0.00 0.00 33 1008.5
20260901180717 76 277 3.0 5.0 0.00 0.00 0.00 31 1008.7
20260901180003 76 228 3.0 8.0 0.00 0.00 0.00 32 1008.8
20260901175717 76 229 3.0 8.0 0.00 0.00 0.00 31 1008.8
20260901175003 75 233 3.0 8.0 0.00 0.00 0.00 32 1009.0
20260901174503 74 227 3.0 8.0 0.00 0.00 0.00 33 1009.0
20260901174003 74 230 3.0 8.0 0.00 0.00 0.00 33 1008.9
20260901173503 73 230 2.0 7.0 0.00 0.00 0.00 33 1008.9
20260901173218 74 227 2.0 7.0 0.00 0.00 0.00 34 1009.1
20260901172503 74 223 1.0 4.0 0.00 0.00 0.00 33 1008.9
20260901172003 74 189 1.0 3.0 0.00 0.00 0.00 30 1009.0
20260901171503 74 187 1.0 4.0 0.00 0.00 0.00 31 1009.0
20260901171003 73 164 0.0 4.0 0.00 0.00 0.00 32 1008.8
20260901170503 73 0 0.0 2.0 0.00 0.00 0.00 34 1008.4
20260901170218 72 0 0.0 2.0 0.00 0.00 0.00 33 1008.5
20260901165503 73 0 0.0 2.0 0.00 0.00 0.00 33 1008.6
20260901165003 73 0 0.0 1.0 0.00 0.00 0.00 34 1008.5
20260901164503 73 60 0.0 3.0 0.00 0.00 0.00 35 1008.4
20260901164003 72 83 0.0 3.0 0.00 0.00 0.00 37 1008.3
20260901163503 71 108 1.0 2.0 0.00 0.00 0.00 37 1008.6
20260901163003 71 94 1.0 2.0 0.00 0.00 0.00 39 1008.5
20260901162503 71 87 1.0 4.0 0.00 0.00 0.00 37 1008.4
20260901162003 70 89 1.0 5.0 0.00 0.00 0.00 38 1008.4
20260901161503 70 90 0.0 5.0 0.00 0.00 0.00 40 1008.4
20260901161003 70 102 0.0 3.0 0.00 0.00 0.00 40 1008.4
20260901160503 70 124 1.0 3.0 0.00 0.00 0.00 40 1008.4
20260901160003 70 119 1.0 3.0 0.00 0.00 0.00 40 1008.4
20260901155718 70 111 1.0 5.0 0.00 0.00 0.00 40 1008.4
20260901155003 70 98 2.0 7.0 0.00 0.00 0.00 41 1008.4
20260901154503 69 97 1.0 7.0 0.00 0.00 0.00 42 1008.3
20260901154003 68 105 1.0 5.0 0.00 0.00 0.00 42 1008.3
20260901153503 67 108 1.0 5.0 0.00 0.00 0.00 44 1008.2
20260901153003 66 93 1.0 3.0 0.00 0.00 0.00 46 1008.2
20260901152503 65 90 1.0 5.0 0.00 0.00 0.00 46 1008.2
20260901152003 64 92 0.0 5.0 0.00 0.00 0.00 47 1008.3
20260901151503 63 0 0.0 2.0 0.00 0.00 0.00 49 1008.3
20260901151003 62 0 0.0 2.0 0.00 0.00 0.00 50 1008.2
20260901150503 61 0 0.0 3.0 0.00 0.00 0.00 50 1008.2
20260901150003 61 0 0.0 3.0 0.00 0.00 0.00 51 1008.1
20260901145504 61 0 0.0 2.0 0.00 0.00 0.00 51 1008.2
20260901145003 60 0 0.0 1.0 0.00 0.00 0.00 51 1008.2
20260901144503 60 125 0.0 1.0 0.00 0.00 0.00 51 1008.2
20260901144217 60 103 1.0 2.0 0.00 0.00 0.00 52 1008.2
20260901143503 59 95 1.0 4.0 0.00 0.00 0.00 54 1008.2
20260901143003 58 97 1.0 4.0 0.00 0.00 0.00 55 1008.1
20260901142503 57 101 0.0 3.0 0.00 0.00 0.00 58 1008.1
20260901142003 54 113 0.0 3.0 0.00 0.00 0.00 62 1008.0
20260901141503 51 199 1.0 1.0 0.00 0.00 0.00 67 1008.0
20260901141003 48 233 1.0 1.0 0.00 0.00 0.00 68 1008.1
20260901140503 46 0 1.0 0.0 0.00 0.00 0.00 64 1008.1
20260901140003 46 0 1.0 0.0 0.00 0.00 0.00 64 1008.1
20260901135503 46 0 1.0 0.0 0.00 0.00 0.00 64 1008.2
20260901135003 46 0 1.0 0.0 0.00 0.00 0.00 64 1008.4
20260901134503 46 0 1.0 0.0 0.00 0.00 0.00 64 1008.4
20260901134003 46 0 1.0 0.0 0.00 0.00 0.00 64 1008.4
20260901133503 46 0 1.0 0.0 0.00 0.00 0.00 64 1008.4
20260901133003 46 0 1.0 0.0 0.00 0.00 0.00 64 1008.4
20260901132503 46 0 1.0 0.0 0.00 0.00 0.00 64 1008.5
20260901132003 46 0 1.0 0.0 0.00 0.00 0.00 64 1008.6
20260901131503 46 0 1.0 0.0 0.00 0.00 0.00 64 1008.6
20260901131003 46 0 1.0 0.0 0.00 0.00 0.00 64 1008.6
20260901130503 46 0 1.0 0.0 0.00 0.00 0.00 64 1008.5
20260901130003 46 0 1.0 0.0 0.00 0.00 0.00 64 1008.6
20260901125717 46 0 1.0 0.0 0.00 0.00 0.00 64 1008.6
20260901125003 46 0 1.0 0.0 0.00 0.00 0.00 64 1008.7
20260901124503 46 0 1.0 0.0 0.00 0.00 0.00 64 1008.6
20260901124003 46 0 1.0 0.0 0.00 0.00 0.00 64 1008.6
20260901123503 46 0 1.0 0.0 0.00 0.00 0.00 64 1008.6
20260901123003 46 0 1.0 0.0 0.00 0.00 0.00 64 1008.6
20260901122503 46 0 1.0 0.0 0.00 0.00 0.00 64 1008.6
20260901122003 46 0 1.0 0.0 0.00 0.00 0.00 64 1008.7
20260901121503 46 0 1.0 0.0 0.00 0.00 0.00 64 1008.7
20260901121003 46 145 1.0 1.0 0.00 0.00 0.00 64 1008.7
20260901120717 46 145 1.0 2.0 0.00 0.00 0.00 64 1008.7
20260901120003 47 145 0.0 2.0 0.00 0.00 0.00 64 1008.8
20260901115503 46 0 0.0 2.0 0.00 0.00 0.00 64 1008.8
20260901115003 46 0 0.0 0.0 0.00 0.00 0.00 60 1008.8
20260901114503 46 0 0.0 0.0 0.00 0.00 0.00 59 1008.8
20260901114003 47 0 0.0 0.0 0.00 0.00 0.00 63 1008.9
20260901113503 47 0 0.0 0.0 0.00 0.00 0.00 63 1008.9
20260901113218 47 0 0.0 0.0 0.00 0.00 0.00 63 1008.9
20260901112716 47 0 0.0 0.0 0.00 0.00 0.00 61 1008.8
20260901112217 47 0 0.0 0.0 0.00 0.00 0.00 60 1008.9
20260901111503 47 0 0.0 0.0 0.00 0.00 0.00 62 1009.0
20260901111003 47 0 0.0 1.0 0.00 0.00 0.00 62 1008.9
20260901110503 46 0 0.0 1.0 0.00 0.00 0.00 63 1008.9
20260901110003 46 0 0.0 0.0 0.00 0.00 0.00 60 1008.9
20260901105503 46 0 0.0 0.0 0.00 0.00 0.00 62 1008.9
20260901105003 46 0 0.0 0.0 0.00 0.00 0.00 60 1008.9
20260901104503 46 0 0.0 0.0 0.00 0.00 0.00 60 1008.9
20260901104217 46 0 0.0 0.0 0.00 0.00 0.00 58 1008.9
20260901103503 46 0 0.0 0.0 0.00 0.00 0.00 59 1009.0
20260901103003 47 0 0.0 0.0 0.00 0.00 0.00 57 1009.0
20260901102503 47 0 0.0 0.0 0.00 0.00 0.00 56 1009.0
20260901102003 48 0 0.0 0.0 0.00 0.00 0.00 55 1009.0
20260901101503 48 0 0.0 1.0 0.00 0.00 0.00 54 1009.0
20260901101003 49 0 0.0 1.0 0.00 0.00 0.00 56 1009.0
20260901100503 49 0 0.0 0.0 0.00 0.00 0.00 53 1009.1
20260901100003 50 0 0.0 0.0 0.00 0.00 0.00 53 1009.0
20260901095503 50 0 0.0 1.0 0.00 0.00 0.00 54 1009.0
20260901095003 50 0 0.0 1.0 0.00 0.00 0.00 54 1009.0
20260901094503 50 84 0.0 2.0 0.00 0.00 0.00 53 1009.1
20260901094003 50 81 0.0 2.0 0.00 0.00 0.00 53 1009.0
20260901093503 50 0 2.0 2.0 0.00 0.00 0.00 53 1009.1
20260901093003 49 0 2.0 2.0 0.00 0.00 0.00 55 1009.1
20260901092718 49 0 1.0 1.0 0.00 0.00 0.00 54 1009.0
20260901092003 48 0 1.0 1.0 0.00 0.00 0.00 57 1009.1
20260901091503 47 0 0.0 0.0 0.00 0.00 0.00 57 1009.1
20260901091217 46 0 0.0 0.0 0.00 0.00 0.00 56 1009.1
20260901090503 46 0 0.0 0.0 0.00 0.00 0.00 56 1009.0
20260901090217 46 0 0.0 0.0 0.00 0.00 0.00 55 1009.0
20260901085503 46 0 0.0 0.0 0.00 0.00 0.00 54 1009.0
20260901085003 47 0 1.0 1.0 0.00 0.00 0.00 55 1009.0
20260901084503 47 0 1.0 1.0 0.00 0.00 0.00 56 1009.0
20260901084003 47 0 1.0 1.0 0.00 0.00 0.00 56 1009.0
20260901083503 47 0 0.0 0.0 0.00 0.00 0.00 57 1009.0
20260901083003 46 0 0.0 0.0 0.00 0.00 0.00 56 1009.1
20260901082503 46 0 0.0 0.0 0.00 0.00 0.00 56 1009.1
20260901082003 46 0 0.0 0.0 0.00 0.00 0.00 55 1009.1
20260901081503 46 0 0.0 0.0 0.00 0.00 0.00 54 1009.2
20260901081003 46 0 0.0 0.0 0.00 0.00 0.00 56 1009.3